[TLELIST] Archives

 

[TLELIST] Current TLEs

March 20th 2024 PDT

HST 1 20580U 90037B 24079.52067206 .00007490 00000-0 36603-3 0 9995 2 20580 28.4672 225.2680 0002999 130.5041 229.5813 15.16351955663404 ISS (ZARYA) 1 25544U 98067A 24080.34304414 .00021639 00000-0 39767-3 0 9993 2 25544 51.6418 35.7824 0004337 347.1090 144.4797 15.49150751444766 CXO 1 25867U 99040B 24077.95735726 .00000953 00000-0 00000-0 0 9991 2 25867 39.2952 162.9220 8968218 289.7402 0.2585 0.37807900 14229 ...Continue Reading

[TLELIST] Current TLEs

March 19th 2024 PDT

HST 1 20580U 90037B 24078.79668839 .00006073 00000-0 29512-3 0 9999 2 20580 28.4672 230.1085 0003086 123.9692 236.1194 15.16339821663295 ISS (ZARYA) 1 25544U 98067A 24079.31390819 .00013368 00000-0 24956-3 0 9996 2 25544 51.6413 40.8708 0004547 344.4739 163.9632 15.49090766444608 CXO 1 25867U 99040B 24077.95735726 .00000953 00000-0 00000-0 0 9991 2 25867 39.2952 162.9220 8968218 289.7402 0.2585 0.37807900 14229 ...Continue Reading

[TLELIST] Current TLEs

March 18th 2024 PDT

HST 1 20580U 90037B 24077.87524792 .00005440 00000-0 26343-3 0 9992 2 20580 28.4672 236.2699 0003113 113.4830 246.6089 15.16328192663155 ISS (ZARYA) 1 25544U 98067A 24078.34081363 .00012870 00000-0 24081-3 0 9995 2 25544 51.6410 45.6851 0004512 340.5510 137.6656 15.49062275444454 CXO 1 25867U 99040B 24077.95735726 .00000953 00000-0 00000-0 0 9991 2 25867 39.2952 162.9220 8968218 289.7402 0.2585 0.37807900 14229 ...Continue Reading

[TLELIST] Current TLEs

March 17th 2024 PDT

HST 1 20580U 90037B 24076.88798267 .00005675 00000-0 27532-3 0 9993 2 20580 28.4672 242.8710 0003102 102.4100 257.6839 15.16317785663003 ISS (ZARYA) 1 25544U 98067A 24077.37954097 .00012332 00000-0 23132-3 0 9999 2 25544 51.6407 50.4427 0004452 336.3967 177.6659 15.49035261444301 CXO 1 25867U 99040B 24077.95735726 .00000953 00000-0 00000-0 0 9991 2 25867 39.2952 162.9220 8968218 289.7402 0.2585 0.37807900 14229 ...Continue Reading

[TLELIST] Current TLEs

March 16th 2024 PDT

HST 1 20580U 90037B 24075.90070949 .00005920 00000-0 28771-3 0 9994 2 20580 28.4675 249.4713 0003062 93.8306 266.2637 15.16307482662855 ISS (ZARYA) 1 25544U 98067A 24076.47490613 .00013569 00000-0 25386-3 0 9994 2 25544 51.6407 54.9175 0004449 332.3221 173.7287 15.49013897444164 CXO 1 25867U 99040B 24077.95735726 .00000953 00000-0 00000-0 0 9991 2 25867 39.2952 162.9220 8968218 289.7402 0.2585 0.37807900 14229 ...Continue Reading

[TLELIST] Current TLEs

March 15th 2024 PDT

HST 1 20580U 90037B 24074.84761066 .00005800 00000-0 28179-3 0 9992 2 20580 28.4676 256.5115 0003073 83.4227 276.6715 15.16295277662692 ISS (ZARYA) 1 25544U 98067A 24075.37906788 .00068557 00000-0 12410-2 0 9997 2 25544 51.6399 60.3392 0005059 331.1899 179.9979 15.49005551444009 CXO 1 25867U 99040B 24075.31335149 .00000887 00000-0 00000+0 0 9999 2 25867 39.2433 163.2357 8969931 289.4884 0.3766 0.37810143 25364 ...Continue Reading

[TLELIST] Current TLEs

March 14th 2024 PDT

HST 1 20580U 90037B 24074.18941943 .00005535 00000-0 26852-3 0 9994 2 20580 28.4676 260.9115 0003077 77.3253 282.7683 15.16287832662854 ISS (ZARYA) 1 25544U 98067A 24074.41191032 .00014407 00000-0 26068-3 0 9999 2 25544 51.6400 65.1219 0006168 5.0268 148.9614 15.49907257443850 CXO 1 25867U 99040B 24075.31335149 .00000887 00000-0 00000+0 0 9999 2 25867 39.2433 163.2357 8969931 289.4884 0.3766 0.37810143 25364 ...Continue Reading

[TLELIST] Current TLEs

March 13th 2024 PDT

HST 1 20580U 90037B 24072.87302726 .00005222 00000-0 25291-3 0 9997 2 20580 28.4674 269.7117 0003101 66.1054 293.9863 15.16273412662396 ISS (ZARYA) 1 25544U 98067A 24073.17686979 .00014320 00000-0 25949-3 0 9991 2 25544 51.6401 71.2399 0006182 0.7221 97.6824 15.49870622443662 CXO 1 25867U 99040B 24075.31335149 .00000887 00000-0 00000+0 0 9999 2 25867 39.2433 163.2357 8969931 289.4884 0.3766 0.37810143 25364 ...Continue Reading

[TLELIST] Current TLEs

March 12th 2024 PDT

HST 1 20580U 90037B 24071.62244300 .00005659 00000-0 27498-3 0 9997 2 20580 28.4676 278.0721 0003068 52.9511 307.1362 15.16261388662206 ISS (ZARYA) 1 25544U 98067A 24072.41134177 .00014061 00000-0 25518-3 0 9999 2 25544 51.6399 75.0324 0006091 357.1730 147.1477 15.49846986443549 CXO 1 25867U 99040B 24072.66974846 .00000940 00000-0 00000-0 0 9998 2 25867 39.1735 163.6302 8969582 289.1772 0.5402 0.37809409 14200 ...Continue Reading

[TLELIST] Current TLEs

March 11th 2024 PDT

HST 1 20580U 90037B 24070.96423709 .00005467 00000-0 26535-3 0 9993 2 20580 28.4676 282.4726 0003052 46.1946 313.8899 15.16253115662365 ISS (ZARYA) 1 25544U 98067A 24071.37997958 .00013428 00000-0 24434-3 0 9999 2 25544 51.6404 80.1417 0006156 353.4782 152.6553 15.49814699443388 CXO 1 25867U 99040B 24072.66974846 .00000940 00000-0 00000-0 0 9998 2 25867 39.1735 163.6302 8969582 289.1772 0.5402 0.37809409 14200 ...Continue Reading
  • This mailing list is a public mailing list - anyone may join or leave, at any time.
  • This mailing list is announce-only.

International Space Station (ISS) / Hubble Space Telescope (HST) / Chandra X-Ray Observatory Orbital Data via EMAIL

Privacy Policy:

Private list